Location: Alpha Ridge Park
(39.3209°N, 76.9128°W)
Time: 02:14:57
(UTC-04:00)

BEESAT - Pass Details

Date: 01 July 2022
Orbit: 700 x 706 km, 98.6° (Epoch: 14 August)

Event Time Altitude Azimuth Distance (km) Brightness Sun altitude
Rises 21:13:03 0° 17° (NNE) 3,102 ? -6.4°
Reaches altitude 10° 21:15:21 10° 22° (NNE) 2,180 ? -6.8°
Maximum altitude 21:20:03 56° 101° (E) 836 ? -7.5°
Drops below altitude 10° 21:24:43 10° 180° (S) 2,168 ? -8.2°
Sets 21:27:00 0° 184° (S) 3,083 ? -8.5°
